Language: 


Des rapports , des résumés tant et plus, au choix de chacun....


Données statistiques de la station
Quotidien Rapport Novembre 13, 2017 Unités:  Anglais    Métrique   les deux
« Précédent Jour
Suivant Jour »
Quotidien Hebdomadaire Mensuel Annuel Actuel
  Haut: Bas: Moyen:
Température: TemperatureC °F 0.0 °F 6.9 °F
Pt de rosée: DewpointC °F 5.0 °F 6.3 °F
Humidité: Humidity % 0 % 93 %
Vitesse du vent: WindSpeedKMH mph 0.0 mph 6.3 mph
Rafales: WindSpeedGustKMH mph - -
Vent:- - WNW
Pression: PressurehPa in 0.0 in -
Précipitation: 10.4 in    
Historical Graphs
 
 
Données statistiques pour Novembre 13, 2017
Heure Température Point de rosée Pression Vent Vitesse du vent Refales Humidité Pluie (taux horaire)
TemperatureC °F DewpointC °F PressurehPa in Calm     Humidity % HourlyPrecipMM in
00:03 5.8 °F 6.0 °F 1014.1 in NNW 2.1 mph 15.4 mph 97 % 1.3 in
00:08 5.8 °F 6.0 °F 1014.1 in NNE 6.4 mph 15.4 mph 97 % 0.8 in
00:13 5.8 °F 6.0 °F 1014.1 in NNW 7.6 mph 9.7 mph 97 % 0.8 in
00:18 5.9 °F 6.0 °F 1014.1 in North 10.1 mph 10.1 mph 97 % 0.5 in
00:23 6.1 °F 6.0 °F 1014.1 in NNW 7.6 mph 14.0 mph 97 % 0.3 in
00:28 6.1 °F 6.0 °F 1014.1 in NNW 8.7 mph 14.0 mph 97 % 0.3 in
00:33 6.1 °F 6.0 °F 1014.1 in WNW 8.7 mph 14.0 mph 97 % 0.3 in
00:38 6.1 °F 6.0 °F 1014.1 in NNW 3.2 mph 8.7 mph 97 % 0.5 in
00:43 6.0 °F 6.0 °F 1014.1 in NW 3.2 mph 8.7 mph 97 % 0.5 in
00:48 6.2 °F 6.0 °F 1014.1 in North 5.0 mph 10.1 mph 97 % 0.5 in
00:53 6.1 °F 6.0 °F 1014.1 in WSW 5.5 mph 10.1 mph 97 % 0.5 in
00:58 6.1 °F 6.0 °F 1014.1 in NNW 3.2 mph 8.7 mph 97 % 0.5 in
01:01 6.2 °F 6.0 °F 1014.1 in NNW 3.2 mph 8.7 mph 98 % 0.5 in
01:06 6.5 °F 7.0 °F 1014.1 in North 9.0 mph 9.0 mph 98 % 0.5 in
01:11 6.7 °F 7.0 °F 1015.1 in WNW 20.1 mph 20.1 mph 98 % 0.5 in
01:16 6.7 °F 6.0 °F 1015.1 in North 12.2 mph 20.1 mph 97 % 0.3 in
01:21 6.7 °F 6.0 °F 1015.1 in NNE 11.9 mph 20.1 mph 93 % 0.3 in
01:26 6.7 °F 6.0 °F 1015.1 in WNW 9.3 mph 20.1 mph 92 % 0.5 in
01:31 6.5 °F 6.0 °F 1015.1 in West 5.8 mph 20.1 mph 93 % 0.5 in
01:36 6.5 °F 6.0 °F 1015.1 in NW 5.8 mph 9.3 mph 94 % 0.3 in
01:41 6.5 °F 6.0 °F 1015.1 in Calm   6.4 mph 94 % 0.3 in
01:46 6.5 °F 6.0 °F 1015.1 in North 4.7 mph 6.4 mph 96 % 0.3 in
01:51 6.6 °F 6.0 °F 1015.1 in NNW 9.3 mph 9.7 mph 97 % 0.3 in
01:56 6.8 °F 7.0 °F 1016.1 in WNW 12.6 mph 14.0 mph 98 % 0.3 in
02:01 6.8 °F 7.0 °F 1016.1 in NNW 11.9 mph 14.0 mph 98 % 0.3 in
02:06 6.8 °F 7.0 °F 1016.1 in NNW 9.7 mph 12.6 mph 98 % 0.3 in
02:11 7.0 °F 7.0 °F 1015.1 in NNW 16.9 mph 18.0 mph 98 % 0.3 in
02:16 7.1 °F 7.0 °F 1015.1 in NNW 8.7 mph 18.0 mph 98 % 0.3 in
02:21 7.1 °F 7.0 °F 1015.1 in NNE 13.0 mph 20.6 mph 98 % 0.3 in
02:26 7.1 °F 7.0 °F 1015.1 in North 5.5 mph 20.6 mph 98 % 0.0 in
02:31 7.0 °F 7.0 °F 1015.1 in NNW 7.9 mph 13.0 mph 98 % 0.0 in
02:36 6.8 °F 6.0 °F 1015.1 in NW 2.1 mph 11.9 mph 97 % 0.0 in
02:41 6.8 °F 6.0 °F 1015.1 in Calm   10.5 mph 97 % 0.0 in
02:46 6.8 °F 7.0 °F 1015.1 in NNE 5.5 mph 10.5 mph 98 % 0.0 in
02:51 6.9 °F 7.0 °F 1015.1 in NNW 8.7 mph 11.9 mph 98 % 0.0 in
02:56 6.8 °F 7.0 °F 1015.1 in NNW 9.7 mph 12.2 mph 98 % 0.0 in
03:01 0.0 °F 6.0 °F 0.0 in Calm     0 % 0.0 in
03:06 6.5 °F 6.0 °F 1015.1 in North 12.2 mph 18.0 mph 94 % 0.0 in
03:11 6.5 °F 6.0 °F 1016.1 in North 13.7 mph 18.0 mph 94 % 0.0 in
03:16 6.4 °F 6.0 °F 1016.1 in NW 12.2 mph 16.3 mph 94 % 0.0 in
03:21 6.3 °F 6.0 °F 1016.1 in NW 9.7 mph 16.3 mph 95 % 2.3 in
03:26 6.3 °F 6.0 °F 1015.1 in WNW 16.3 mph 16.3 mph 96 % 2.3 in
03:31 6.3 °F 6.0 °F 1015.1 in North 6.1 mph 16.3 mph 97 % 2.3 in
03:36 6.3 °F 6.0 °F 1015.1 in North 10.1 mph 16.3 mph 97 % 2.3 in
03:41 6.3 °F 6.0 °F 1016.1 in West 10.5 mph 13.0 mph 97 % 2.3 in
03:46 6.3 °F 6.0 °F 1016.1 in WNW 14.0 mph 14.0 mph 97 % 2.3 in
03:52 6.1 °F 6.0 °F 1016.1 in NNW 8.7 mph 14.0 mph 97 % 2.3 in
03:57 6.2 °F 6.0 °F 1016.1 in North 9.3 mph 13.7 mph 97 % 2.3 in
04:02 6.3 °F 6.0 °F 1016.1 in West 8.7 mph 13.7 mph 98 % 2.0 in
04:07 6.3 °F 6.0 °F 1016.1 in NNW 7.9 mph 11.9 mph 98 % 2.0 in
04:13 6.3 °F 6.0 °F 1016.8 in North 13.7 mph 13.7 mph 98 % 2.0 in
04:18 6.4 °F 6.0 °F 1016.8 in NNE 8.7 mph 21.2 mph 98 % 0.0 in
04:21 6.5 °F 7.0 °F 1016.8 in North 9.0 mph 21.2 mph 98 % 0.0 in
04:22 6.5 °F 7.0 °F 1016.8 in North 9.0 mph 21.2 mph 98 % 0.0 in
04:24 6.5 °F 7.0 °F 1016.8 in NNE 6.9 mph 14.8 mph 98 % 0.0 in
04:28 6.6 °F 7.0 °F 1016.1 in North 12.6 mph 14.8 mph 98 % 0.0 in
04:33 6.5 °F 7.0 °F 1016.1 in NNW 20.6 mph 20.6 mph 98 % 0.0 in
04:38 6.4 °F 6.0 °F 1016.1 in ENE 9.7 mph 20.6 mph 98 % 0.0 in
04:43 6.3 °F 6.0 °F 1018.2 in NNE 13.7 mph 20.6 mph 98 % 0.0 in
04:48 6.3 °F 6.0 °F 1018.2 in North 6.9 mph 13.7 mph 98 % 0.0 in
04:53 6.2 °F 6.0 °F 1018.2 in North 6.9 mph 13.7 mph 98 % 0.0 in
04:58 6.1 °F 6.0 °F 1018.2 in NNW 3.2 mph 6.9 mph 98 % 0.0 in
05:03 6.0 °F 6.0 °F 1018.2 in WNW 2.6 mph 6.9 mph 98 % 0.0 in
05:08 5.8 °F 6.0 °F 1018.2 in Calm   5.8 mph 98 % 0.0 in
05:13 5.7 °F 6.0 °F 1016.8 in WNW 4.3 mph 5.0 mph 98 % 0.0 in
05:18 5.6 °F 6.0 °F 1016.8 in WNW 5.5 mph 8.7 mph 98 % 0.0 in
05:23 5.9 °F 6.0 °F 1016.8 in NNE 9.0 mph 9.0 mph 98 % 0.0 in
05:28 6.1 °F 6.0 °F 1016.1 in North 6.1 mph 9.0 mph 98 % 0.0 in
05:33 6.3 °F 6.0 °F 1016.1 in Calm   9.0 mph 98 % 0.0 in
05:38 6.4 °F 6.0 °F 1016.1 in North 7.9 mph 7.9 mph 98 % 0.0 in
05:43 6.4 °F 6.0 °F 1016.8 in NNW 1.8 mph 7.9 mph 98 % 0.0 in
05:48 6.5 °F 7.0 °F 1016.8 in WNW 13.0 mph 13.0 mph 98 % 0.0 in
05:53 6.7 °F 7.0 °F 1016.8 in NW 7.6 mph 13.0 mph 98 % 0.0 in
05:58 6.7 °F 7.0 °F 1018.2 in North 13.7 mph 13.7 mph 98 % 0.0 in
06:03 6.6 °F 7.0 °F 1018.2 in NNE 5.0 mph 13.7 mph 98 % 0.0 in
06:08 6.4 °F 6.0 °F 1018.2 in NNW 8.7 mph 14.3 mph 98 % 0.0 in
06:13 6.3 °F 6.0 °F 1016.8 in WNW 6.1 mph 14.3 mph 98 % 0.0 in
06:18 6.4 °F 6.0 °F 1016.8 in NNW 9.3 mph 13.7 mph 98 % 0.0 in
06:23 6.5 °F 7.0 °F 1016.8 in NNW 9.3 mph 13.7 mph 98 % 0.0 in
06:28 6.5 °F 7.0 °F 1018.2 in NNW 9.0 mph 9.3 mph 98 % 0.0 in
06:33 6.4 °F 6.0 °F 1018.2 in NNW 4.0 mph 9.3 mph 98 % 0.0 in
06:38 6.4 °F 6.0 °F 1018.2 in NE 9.7 mph 9.7 mph 98 % 0.0 in
06:43 6.4 °F 6.0 °F 1018.2 in North 5.0 mph 9.7 mph 98 % 0.0 in
06:48 6.4 °F 6.0 °F 1018.2 in WNW 9.0 mph 9.7 mph 98 % 0.0 in
06:53 6.5 °F 7.0 °F 1018.2 in NNE 6.9 mph 9.0 mph 98 % 0.0 in
06:58 6.5 °F 7.0 °F 1018.2 in WNW 3.5 mph 10.1 mph 98 % 0.0 in
07:03 6.7 °F 7.0 °F 1018.2 in NNW 16.3 mph 16.3 mph 98 % 0.0 in
07:08 6.8 °F 7.0 °F 1018.2 in NNW 10.1 mph 40.4 mph 98 % 0.0 in
07:13 6.7 °F 7.0 °F 1018.8 in North 10.1 mph 40.4 mph 98 % 0.0 in
07:18 6.5 °F 7.0 °F 1018.8 in NNW 5.0 mph 16.6 mph 98 % 0.0 in
07:20 6.5 °F 7.0 °F 1018.8 in NNW 11.6 mph 16.6 mph 98 % 0.0 in
07:25 6.4 °F 6.0 °F 1018.8 in NNW 8.7 mph 11.6 mph 97 % 3.3 in
07:30 6.4 °F 6.0 °F 1018.8 in North 6.4 mph 11.6 mph 97 % 3.3 in
07:35 6.5 °F 6.0 °F 1018.8 in West 5.8 mph 17.2 mph 97 % 3.3 in
07:40 6.5 °F 6.0 °F 1018.8 in NNE 6.4 mph 17.2 mph 97 % 3.3 in
07:45 6.5 °F 7.0 °F 1018.8 in West 9.0 mph 10.8 mph 98 % 3.3 in
07:50 6.6 °F 7.0 °F 1018.8 in WNW 15.1 mph 15.1 mph 98 % 4.1 in
07:56 6.5 °F 7.0 °F 1018.8 in West 3.2 mph 15.1 mph 98 % 4.1 in
08:01 6.4 °F 6.0 °F 1018.8 in WNW 3.2 mph 15.1 mph 98 % 4.1 in
08:06 6.4 °F 6.0 °F 1018.8 in WNW 2.1 mph 6.9 mph 98 % 4.1 in
08:11 6.4 °F 6.0 °F 1018.8 in NW 1.4 mph 10.5 mph 98 % 4.1 in
08:16 6.6 °F 7.0 °F 1018.8 in North 12.2 mph 12.2 mph 98 % 4.1 in
08:21 6.7 °F 7.0 °F 1018.8 in NNW 11.6 mph 16.6 mph 98 % 4.1 in
08:26 6.8 °F 7.0 °F 1018.8 in WNW 5.8 mph 16.6 mph 98 % 0.5 in
08:31 6.7 °F 7.0 °F 1018.8 in North 13.7 mph 16.9 mph 98 % 0.5 in
08:36 6.5 °F 7.0 °F 1018.8 in North 6.4 mph 16.9 mph 98 % 1.3 in
08:41 6.4 °F 6.0 °F 1018.8 in NW 8.7 mph 12.2 mph 98 % 1.3 in
08:46 6.3 °F 6.0 °F 1018.8 in Calm   11.9 mph 97 % 0.5 in
08:51 6.4 °F 6.0 °F 1018.8 in NNE 5.5 mph 9.3 mph 98 % 0.5 in
08:56 6.4 °F 6.0 °F 1018.8 in NNW 2.6 mph 5.8 mph 98 % 0.5 in
09:01 6.4 °F 6.0 °F 1018.8 in NNE 5.5 mph 9.3 mph 98 % 0.5 in
09:06 6.5 °F 7.0 °F 1018.8 in NNW 3.2 mph 9.3 mph 98 % 0.5 in
09:11 6.6 °F 7.0 °F 1020.9 in NNW 9.0 mph 9.0 mph 98 % 0.5 in
09:16 6.7 °F 7.0 °F 1020.9 in NNW 12.2 mph 12.2 mph 98 % 0.5 in
09:21 7.0 °F 7.0 °F 1020.9 in Calm   12.2 mph 98 % 0.5 in
09:26 7.1 °F 7.0 °F 1020.9 in NNE 5.5 mph 7.9 mph 98 % 0.5 in
09:31 6.9 °F 7.0 °F 1020.9 in NNE 5.0 mph 15.4 mph 97 % 0.3 in
09:36 6.8 °F 6.0 °F 1020.9 in NW 6.1 mph 15.4 mph 96 % 0.0 in
09:41 7.1 °F 7.0 °F 1019.9 in WNW 5.8 mph 13.0 mph 96 % 0.0 in
09:46 7.1 °F 7.0 °F 1019.9 in North 28.0 mph 28.0 mph 96 % 0.3 in
09:51 6.8 °F 6.0 °F 1019.9 in NNE 3.2 mph 28.0 mph 96 % 0.3 in
09:56 6.6 °F 6.0 °F 1020.9 in NNE 7.9 mph 24.8 mph 95 % 0.3 in
10:01 6.5 °F 6.0 °F 1020.9 in North 9.7 mph 16.3 mph 95 % 0.3 in
10:06 6.7 °F 6.0 °F 1020.9 in WNW 8.7 mph 12.2 mph 95 % 0.3 in
10:11 6.8 °F 6.0 °F 1020.9 in NW 5.0 mph 17.2 mph 96 % 0.3 in
10:16 7.1 °F 7.0 °F 1020.9 in WSW 6.4 mph 19.5 mph 96 % 0.3 in
10:21 7.2 °F 7.0 °F 1020.9 in WNW 10.1 mph 19.5 mph 96 % 0.3 in
10:26 7.5 °F 7.0 °F 1020.9 in WNW 4.3 mph 12.6 mph 97 % 0.3 in
10:31 7.4 °F 7.0 °F 1020.9 in NW 6.1 mph 12.6 mph 96 % 0.3 in
10:36 7.4 °F 7.0 °F 1020.9 in North 13.0 mph 13.0 mph 95 % 0.3 in
10:41 7.7 °F 7.0 °F 1020.9 in North 11.9 mph 13.0 mph 94 % 0.3 in
10:46 7.9 °F 7.0 °F 1020.9 in NNW 4.0 mph 13.0 mph 94 % 0.0 in
10:51 8.2 °F 7.0 °F 1020.9 in NNE 10.1 mph 11.9 mph 94 % 0.3 in
10:56 8.4 °F 8.0 °F 1020.9 in WNW 6.1 mph 10.1 mph 94 % 0.3 in
11:01 8.5 °F 8.0 °F 1020.9 in NNW 6.9 mph 17.2 mph 94 % 0.3 in
11:06 8.7 °F 8.0 °F 1020.9 in NW 5.0 mph 17.2 mph 94 % 0.3 in
11:16 9.3 °F 9.0 °F 1020.9 in NNW 15.4 mph 15.4 mph 94 % 0.3 in
11:21 9.4 °F 8.0 °F 1020.9 in NNE 13.0 mph 15.4 mph 92 % 0.3 in
11:26 9.2 °F 8.0 °F 1020.9 in NNW 15.4 mph 16.6 mph 88 % 0.3 in
11:31 8.9 °F 7.0 °F 1020.9 in North 16.3 mph 19.5 mph 86 % 0.3 in
11:36 8.7 °F 7.0 °F 1020.9 in NNW 7.9 mph 19.8 mph 86 % 0.3 in
11:41 8.5 °F 7.0 °F 1020.9 in NW 13.7 mph 19.8 mph 85 % 0.3 in
11:46 8.5 °F 7.0 °F 1020.9 in North 13.0 mph 17.2 mph 85 % 0.3 in
11:51 8.5 °F 7.0 °F 1020.9 in NNW 5.0 mph 17.2 mph 87 % 0.0 in
11:56 8.7 °F 7.0 °F 1020.9 in North 6.1 mph 14.0 mph 87 % 0.0 in
12:01 9.0 °F 7.0 °F 1020.9 in North 7.9 mph 14.0 mph 88 % 0.0 in
12:06 9.4 °F 8.0 °F 1020.9 in North 6.9 mph 10.1 mph 88 % 0.0 in
12:11 9.9 °F 8.0 °F 1020.9 in North 12.2 mph 12.2 mph 87 % 0.0 in
12:16 9.7 °F 7.0 °F 1020.9 in NW 12.6 mph 15.4 mph 84 % 0.0 in
12:21 10.0 °F 7.0 °F 1020.9 in NNW 17.2 mph 17.2 mph 83 % 0.0 in
12:26 10.3 °F 8.0 °F 1020.9 in North 6.9 mph 17.2 mph 83 % 0.0 in
12:32 10.2 °F 8.0 °F 1020.9 in North 6.4 mph 12.6 mph 83 % 0.0 in
12:37 9.8 °F 7.0 °F 1020.9 in NW 8.7 mph 17.7 mph 82 % 0.0 in
12:42 9.6 °F 7.0 °F 1020.9 in North 6.9 mph 17.7 mph 80 % 0.0 in
12:47 9.8 °F 7.0 °F 1020.9 in Calm   12.6 mph 83 % 0.0 in
12:52 10.4 °F 8.0 °F 1020.9 in NW 11.1 mph 11.1 mph 83 % 0.0 in
12:57 10.7 °F 8.0 °F 1020.9 in NNW 8.7 mph 11.1 mph 83 % 0.0 in
13:02 10.9 °F 8.0 °F 1020.9 in ENE 4.0 mph 11.1 mph 82 % 0.0 in
13:07 10.7 °F 8.0 °F 1020.9 in WSW 5.5 mph 12.6 mph 82 % 0.0 in
13:12 10.2 °F 8.0 °F 1020.9 in NW 5.8 mph 12.6 mph 83 % 0.0 in
13:17 9.8 °F 7.0 °F 1020.9 in North 6.1 mph 12.2 mph 84 % 0.0 in
13:22 9.3 °F 7.0 °F 1020.9 in NE 13.0 mph 13.0 mph 83 % 0.0 in
13:27 8.8 °F 6.0 °F 1021.9 in NNE 11.6 mph 13.0 mph 82 % 0.0 in
13:28 8.6 °F 6.0 °F 1021.9 in North 11.6 mph 13.0 mph 83 % 0.0 in
13:33 8.4 °F 6.0 °F 1021.9 in NNW 6.1 mph 13.0 mph 85 % 0.0 in
13:38 8.4 °F 6.0 °F 1021.9 in NNE 6.1 mph 11.6 mph 86 % 0.0 in
13:43 8.5 °F 7.0 °F 1020.9 in NNE 6.1 mph 6.1 mph 89 % 0.0 in
13:48 9.2 °F 8.0 °F 1020.9 in North 10.5 mph 11.6 mph 91 % 0.0 in
13:53 9.7 °F 9.0 °F 1020.9 in North 11.1 mph 12.6 mph 91 % 0.0 in
13:58 10.0 °F 9.0 °F 1020.9 in West 11.1 mph 12.6 mph 90 % 0.0 in
14:03 10.1 °F 8.0 °F 1020.9 in North 11.9 mph 11.9 mph 88 % 0.0 in
14:08 10.4 °F 8.0 °F 1020.9 in NNW 5.0 mph 14.0 mph 85 % 0.0 in
14:13 10.5 °F 8.0 °F 1020.9 in NNW 13.0 mph 14.0 mph 83 % 0.0 in
14:18 10.3 °F 7.0 °F 1020.9 in NNW 7.9 mph 20.9 mph 79 % 0.0 in
14:23 10.4 °F 7.0 °F 1020.9 in WNW 6.9 mph 20.9 mph 79 % 0.0 in
14:28 10.4 °F 7.0 °F 1021.9 in North 9.7 mph 20.1 mph 80 % 0.0 in
14:33 10.5 °F 8.0 °F 1021.9 in NNW 9.0 mph 10.1 mph 80 % 0.0 in
14:38 10.2 °F 7.0 °F 1021.9 in NW 16.9 mph 16.9 mph 79 % 0.0 in
14:40 10.0 °F 6.0 °F 1021.9 in NNW 9.3 mph 16.9 mph 77 % 0.0 in
14:45 9.6 °F 6.0 °F 1021.9 in North 5.8 mph 16.9 mph 77 % 0.0 in
14:46 9.5 °F 6.0 °F 1021.9 in North 5.8 mph 16.9 mph 77 % 0.0 in
14:51 9.2 °F 6.0 °F 1021.9 in West 10.1 mph 10.1 mph 76 % 0.0 in
14:56 8.9 °F 6.0 °F 1021.9 in North 14.3 mph 14.3 mph 78 % 0.0 in
15:01 8.8 °F 6.0 °F 1021.9 in North 7.9 mph 14.3 mph 79 % 0.0 in
15:06 8.8 °F 6.0 °F 1021.9 in North 10.5 mph 11.9 mph 82 % 0.0 in
15:11 8.9 °F 6.0 °F 1021.9 in NW 5.5 mph 10.5 mph 83 % 0.0 in
15:16 8.9 °F 6.0 °F 1021.9 in NNW 11.9 mph 16.6 mph 83 % 0.0 in
15:21 8.8 °F 7.0 °F 1021.9 in WNW 13.7 mph 16.6 mph 84 % 0.0 in
15:26 9.1 °F 7.0 °F 1021.9 in North 6.4 mph 14.0 mph 84 % 0.0 in
15:31 9.3 °F 7.0 °F 1021.9 in NNW 13.7 mph 13.7 mph 83 % 0.0 in
15:37 9.1 °F 6.0 °F 1021.9 in NNE 9.3 mph 13.7 mph 81 % 0.0 in
15:42 8.9 °F 6.0 °F 1021.9 in NNW 7.6 mph 13.7 mph 80 % 0.0 in
15:47 8.8 °F 6.0 °F 1021.9 in NNW 10.5 mph 10.5 mph 78 % 0.0 in
15:52 8.8 °F 6.0 °F 1021.9 in NNE 12.6 mph 17.2 mph 77 % 0.0 in
15:53 8.6 °F 6.0 °F 1021.9 in NNE 11.9 mph 17.2 mph 79 % 0.0 in
15:58 8.2 °F 5.0 °F 1021.9 in NNE 4.7 mph 17.2 mph 80 % 0.0 in
16:03 8.0 °F 5.0 °F 1021.9 in North 9.3 mph 15.4 mph 80 % 0.3 in
16:08 7.8 °F 5.0 °F 1021.9 in NNW 9.0 mph 9.7 mph 83 % 0.5 in
16:13 7.6 °F 5.0 °F 1021.9 in North 5.8 mph 10.5 mph 84 % 0.5 in
16:18 7.4 °F 6.0 °F 1021.9 in Calm   13.0 mph 87 % 0.5 in
16:23 7.3 °F 6.0 °F 1021.9 in NNW 6.9 mph 16.3 mph 88 % 0.5 in
16:28 7.2 °F 6.0 °F 1022.9 in NNW 5.8 mph 16.3 mph 89 % 0.5 in
16:33 7.1 °F 6.0 °F 1022.9 in NNW 5.8 mph 8.7 mph 90 % 0.8 in
16:39 7.0 °F 6.0 °F 1022.9 in NW 5.0 mph 9.0 mph 91 % 1.3 in
16:44 7.0 °F 6.0 °F 1022.9 in WNW 6.4 mph 9.0 mph 91 % 1.3 in
16:49 6.9 °F 6.0 °F 1022.9 in WNW 3.2 mph 10.5 mph 94 % 1.3 in
16:54 6.9 °F 6.0 °F 1022.9 in NW 5.8 mph 10.5 mph 94 % 1.3 in
16:59 6.8 °F 6.0 °F 1022.9 in North 7.6 mph 8.7 mph 95 % 1.3 in
17:04 6.8 °F 6.0 °F 1022.9 in WNW 9.7 mph 10.1 mph 95 % 0.8 in
17:09 6.8 °F 6.0 °F 1022.9 in NW 9.0 mph 13.0 mph 96 % 0.5 in
17:14 6.8 °F 6.0 °F 1022.9 in WNW 6.1 mph 13.7 mph 96 % 0.5 in
17:19 6.8 °F 6.0 °F 1022.9 in West 3.2 mph 13.7 mph 96 % 0.5 in
17:24 6.7 °F 6.0 °F 1022.9 in WNW 6.1 mph 9.3 mph 96 % 0.5 in
17:29 6.7 °F 6.0 °F 1022.9 in WNW 9.7 mph 9.7 mph 96 % 0.3 in
17:34 6.7 °F 6.0 °F 1022.9 in WNW 6.4 mph 9.7 mph 96 % 0.3 in
17:39 6.7 °F 6.0 °F 1022.9 in NE 10.5 mph 14.3 mph 96 % 0.3 in
17:44 6.7 °F 6.0 °F 1022.9 in NW 5.5 mph 14.3 mph 96 % 0.3 in
17:49 6.6 °F 6.0 °F 1022.9 in Calm   11.9 mph 96 % 0.3 in
17:54 6.5 °F 6.0 °F 1022.9 in WNW 4.0 mph 8.7 mph 96 % 0.5 in
17:59 6.4 °F 6.0 °F 1021.9 in WNW 4.0 mph 8.7 mph 96 % 0.5 in
18:04 6.4 °F 6.0 °F 1021.9 in North 8.7 mph 9.3 mph 96 % 0.5 in
18:09 6.5 °F 6.0 °F 1021.9 in North 3.2 mph 12.6 mph 96 % 0.5 in
18:14 6.5 °F 6.0 °F 1022.9 in WNW 1.4 mph 12.6 mph 96 % 0.5 in
18:19 6.5 °F 6.0 °F 1022.9 in North 4.0 mph 9.3 mph 97 % 0.5 in
18:25 6.6 °F 6.0 °F 1022.9 in WNW 3.2 mph 9.3 mph 97 % 0.5 in
18:30 6.6 °F 6.0 °F 1022.9 in Calm   7.9 mph 97 % 0.5 in
18:35 6.5 °F 6.0 °F 1022.9 in North 8.7 mph 8.7 mph 97 % 0.3 in
18:40 6.5 °F 6.0 °F 1022.9 in WNW 1.4 mph 10.1 mph 97 % 0.3 in
18:45 6.5 °F 6.0 °F 1022.9 in West 4.7 mph 10.1 mph 97 % 0.3 in
18:50 6.4 °F 6.0 °F 1022.9 in NNW 4.3 mph 6.4 mph 97 % 0.0 in
18:55 6.4 °F 6.0 °F 1022.9 in Calm   5.8 mph 97 % 0.0 in
19:00 6.4 °F 6.0 °F 1023.9 in Calm   3.5 mph 97 % 0.0 in
19:05 6.3 °F 6.0 °F 1023.9 in Calm   3.5 mph 97 % 0.3 in
19:10 6.3 °F 6.0 °F 1023.9 in WNW 4.0 mph 5.5 mph 97 % 0.3 in
19:15 6.3 °F 6.0 °F 1022.9 in Calm   5.5 mph 97 % 0.3 in
19:20 6.2 °F 6.0 °F 1022.9 in WNW 3.5 mph 4.0 mph 97 % 0.3 in
19:25 6.1 °F 6.0 °F 1023.9 in Calm   5.0 mph 97 % 0.3 in
19:30 6.1 °F 6.0 °F 1023.9 in Calm   5.0 mph 97 % 0.3 in
19:36 6.0 °F 6.0 °F 1023.9 in Calm   4.3 mph 97 % 0.3 in
19:41 5.9 °F 6.0 °F 1023.9 in Calm   1.8 mph 97 % 0.3 in
19:46 5.8 °F 6.0 °F 1023.9 in Calm   1.8 mph 97 % 0.3 in
19:51 5.7 °F 6.0 °F 1023.9 in Calm     97 % 0.3 in
19:56 5.6 °F 6.0 °F 1023.9 in Calm     97 % 0.3 in
20:01 5.5 °F 6.0 °F 1023.9 in Calm     97 % 0.3 in
20:06 5.4 °F 5.0 °F 1023.9 in Calm   5.5 mph 97 % 0.0 in
20:11 5.3 °F 5.0 °F 1023.9 in Calm   5.5 mph 97 % 0.0 in
20:16 5.2 °F 5.0 °F 1023.9 in Calm   4.7 mph 97 % 0.0 in
20:22 5.1 °F 5.0 °F 1023.9 in Calm   4.7 mph 98 % 0.0 in
20:27 5.1 °F 5.0 °F 1023.9 in Calm   4.3 mph 98 % 0.0 in
20:32 5.1 °F 5.0 °F 1023.9 in Calm   4.3 mph 98 % 0.0 in
20:37 5.3 °F 6.0 °F 1023.9 in NNW 2.1 mph 4.0 mph 98 % 0.0 in
20:42 5.4 °F 6.0 °F 1023.9 in Calm   4.0 mph 98 % 0.0 in
20:47 5.4 °F 6.0 °F 1023.9 in Calm   2.6 mph 98 % 0.0 in
20:52 5.4 °F 6.0 °F 1023.9 in Calm   5.0 mph 98 % 0.0 in
20:57 5.4 °F 6.0 °F 1023.9 in Calm   5.0 mph 98 % 0.0 in
21:02 5.3 °F 6.0 °F 1023.9 in West 2.1 mph 4.3 mph 98 % 0.0 in
21:07 5.3 °F 6.0 °F 1023.9 in Calm   4.0 mph 98 % 0.0 in
21:12 5.3 °F 6.0 °F 1023.9 in Calm   3.5 mph 98 % 0.0 in
21:17 5.3 °F 6.0 °F 1023.9 in Calm   1.4 mph 98 % 0.0 in
21:22 5.3 °F 6.0 °F 1023.9 in Calm   2.6 mph 98 % 0.0 in
21:27 5.1 °F 5.0 °F 1024.9 in Calm   2.6 mph 98 % 0.0 in
21:32 4.7 °F 5.0 °F 1024.9 in Calm     98 % 0.0 in
21:38 4.6 °F 5.0 °F 1024.9 in Calm     98 % 0.0 in
21:43 4.6 °F 5.0 °F 1024.9 in Calm     98 % 0.0 in
21:48 4.6 °F 5.0 °F 1024.9 in Calm     98 % 0.0 in
21:53 4.7 °F 5.0 °F 1024.9 in Calm     98 % 0.0 in
21:58 4.7 °F 5.0 °F 1024.9 in Calm     98 % 0.0 in
22:03 4.7 °F 5.0 °F 1024.9 in Calm     98 % 0.0 in
22:08 4.7 °F 5.0 °F 1024.9 in Calm     98 % 0.0 in
22:13 4.7 °F 5.0 °F 1024.9 in Calm     98 % 0.0 in
22:18 5.0 °F 5.0 °F 1024.9 in NE 4.7 mph 13.7 mph 98 % 0.0 in
22:23 5.2 °F 5.0 °F 1024.9 in Calm   13.7 mph 98 % 0.0 in
22:28 5.4 °F 6.0 °F 1024.9 in Calm   1.8 mph 98 % 0.0 in
22:33 5.5 °F 6.0 °F 1024.9 in Calm     98 % 0.0 in
22:38 5.5 °F 6.0 °F 1024.9 in Calm     98 % 0.0 in
22:43 5.5 °F 6.0 °F 1024.9 in Calm     98 % 0.0 in
22:48 5.5 °F 6.0 °F 1024.9 in Calm     98 % 0.0 in
22:53 5.5 °F 6.0 °F 1024.9 in Calm     98 % 0.0 in
22:58 5.5 °F 6.0 °F 1024.9 in Calm     98 % 0.0 in
23:04 5.6 °F 6.0 °F 1024.9 in Calm     98 % 0.0 in
23:09 5.6 °F 6.0 °F 1024.9 in Calm     98 % 0.0 in
23:14 5.6 °F 6.0 °F 1024.9 in Calm     98 % 0.0 in
23:19 5.5 °F 6.0 °F 1024.9 in Calm     98 % 0.0 in
23:24 5.5 °F 6.0 °F 1024.9 in Calm     98 % 0.0 in
23:29 5.4 °F 6.0 °F 1024.9 in Calm     98 % 0.0 in
23:34 5.3 °F 6.0 °F 1024.9 in Calm     98 % 0.0 in
23:39 5.2 °F 5.0 °F 1024.9 in Calm     98 % 0.0 in
23:44 5.2 °F 5.0 °F 1024.9 in Calm     98 % 0.0 in
23:49 5.1 °F 5.0 °F 1024.9 in Calm     98 % 0.0 in
23:54 4.9 °F 5.0 °F 1024.9 in Calm     98 % 0.0 in
23:59 4.7 °F 5.0 °F 1024.9 in Calm     98 % 0.0 in
Le Gheer Warneton
Courtoisie de Weather Underground - 2.25 mb

Mise a jour : 24/02/2018 01:08:11
Généré par Cumulus 1.9.4 (1099)